Location: Équennes
(49.7375°N, 1.9622°E)
Time: 00:45:15
(UTC+00:00)

Cosmos 1340 Rocket - Pass Details

Date: 28 January 2023
Orbit: 514 x 558 km, 81.2° (Epoch: 30 March)

Event Time Altitude Azimuth Distance (km) Brightness Sun altitude
Rises 17:53:12 0° 169° (S) 2,622 6.3 -11.9°
Reaches altitude 10° 17:55:25 10° 160° (SSE) 1,743 5.3 -12.2°
Maximum altitude 17:58:55 35° 94° (E) 853 3.3 -12.8°
Enters shadow 18:02:22 11° 29° (NNE) 1,731 5.0 -13.3°
